Flag for Mexico Weather past 2 weeks in Merida, Yucatán, Mexico

Now
88 °F

Partly sunny.


Feels Like: 96 °F
Forecast: 77 / 92 °F
Wind: 13 mph from East

Location: Aerop. Internacional Merida - Yuc

Current Time: Aug 22, 2014 at 11:04:33 AM

Latest Report: Aug 22, 2014 at 10:31 AM


Visibility: 7 mi

Pressure: 30.02 "Hg

Humidity: 62%

Dew point: 73 °F

Location of MeridaLocation

Historic Weather in Merida — Graph

°F

Merida temperature yesterday

Maximum temperature yesterday: 93 °F (at 1:49 PM)
Minimum temperature yesterday: 77 °F (at 12:49 AM)
Average temperature yesterday: 83 °F

Past Weeks' High & Low Weather Summary

 TemperatureHumidityPressure
High97 °F (Aug 8, 1:49 PM)100% (Aug 8, 6:48 AM)30.39 "Hg (Aug 8, 6:48 AM)
Low72 °F (Aug 12, 7:50 PM)34% (Aug 10, 3:47 PM)29.87 "Hg (Aug 18, 4:52 PM)
Average82 °F74%29.98 "Hg
* Reported Aug 7 9:42 AM — Aug 22 9:46 AM, Merida, Weather by CustomWeather, © 2014

Note: Actual official high and low records may vary slightly from our data, if they occured in-between our weather recording intervals... More about our weather records

Advertising

Merida weather history for previous 24 hours

 ConditionsComfort  
Time TempWeatherWind HumidityBarometerVisibility
9:46 AM
Aug 22
86 °FScattered clouds.13 mph70%29.99 "Hg7 mi
8:51 AM82 °FPartly sunny.12 mph74%30.00 "Hg7 mi
7:47 AM81 °FPartly sunny.7 mph84%30.00 "Hg5 mi
6:49 AM77 °FPassing clouds.6 mph100%29.99 "Hg6 mi
5:47 AM77 °FClear.6 mph100%29.98 "Hg6 mi
4:52 AM79 °FPassing clouds.6 mph100%29.98 "Hg6 mi
3:49 AM79 °FPassing clouds.5 mph100%30.03 "Hg6 mi
2:46 AM77 °FPassing clouds.No wind100%30.00 "Hg6 mi
1:47 AM79 °FPartly cloudy.5 mph100%30.02 "Hg6 mi
10:54 PM
Aug 21
81 °FPartly cloudy.7 mph84%30.05 "Hg7 mi
9:47 PM81 °FOvercast.5 mph84%30.06 "Hg7 mi
8:46 PM79 °FOvercast.5 mph84%30.03 "Hg7 mi
7:50 PM79 °FThunderstorms. Mostly cloudy.12 mph70%30.01 "Hg6 mi
7:20 PM82 °FMostly cloudy.29 mph58%30.02 "Hg7 mi
6:52 PM86 °FMore clouds than sun.13 mph62%29.98 "Hg7 mi
5:46 PM90 °FMore clouds than sun.9 mph55%29.97 "Hg7 mi
4:54 PM91 °FMore clouds than sun.9 mph56%29.95 "Hg7 mi
2:47 PM93 °FBroken clouds.14 mph41%29.98 "Hg7 mi
1:49 PM93 °FPartly sunny.10 mph49%30.02 "Hg7 mi
12:50 PM91 °FPartly sunny.7 mph52%30.03 "Hg7 mi
11:46 AM90 °FScattered clouds.10 mph55%30.05 "Hg7 mi
Weather by CustomWeather, © 2014

See weather overviewHow to use our weather pages